Weather History for Newberry, MI

Change the Weather History Date:

Saturday, October 1, 2011

  Actual Average Record
Temperature  
Mean Temperature 42 °F -  
Max Temperature 53 °F 59 °F 80 °F (2002)
Min Temperature 30 °F 40 °F 26 °F (1955)
Degree Days  
Heating Degree Days 24    
Moisture  
Dew Point 32 °F    
Average Humidity 69    
Maximum Humidity 93    
Minimum Humidity 38    
Precipitation  
Precipitation 0.00 in - - ()
Sea Level Pressure  
Sea Level Pressure 30.29 in    
Wind  
Wind Speed 6 mph (North)    
Max Wind Speed 12 mph    
Max Gust Speed 17 mph    
Visibility 10 miles    
Events      
Averages and records for this station are not official NWS values.
T = Trace of Precipitation, MM = Missing Value Source: NWS Daily Summary

Daily Weather History Graph

Daily Weather History Graph

Search for Another Location

Airport:

Trip Planner

Search our weather history database for the weather conditions in past years. The results will help you decide how hot, cold, wet, or windy it might be!

Date:

Astronomy

Oct. 01, 2011 Rise Set
Actual Time 7:40 AM EDT 7:22 PM EDT
Civil Twilight 7:10 AM EDT 7:52 PM EDT
Nautical Twilight 6:35 AM EDT 8:26 PM EDT
Astronomical Twilight 5:59 AM EDT 9:02 PM EDT
Moon 1:05 PM EDT (10/1) 9:58 PM EDT (10/1)
Length of Visible Light 12h 42m
Length of Day
11h 42m
Waxing Crescent, 24% of the Moon is Illuminated
Oct 1
Waxing Crescent
Oct 3
First Quarter
Oct 11
Full
Oct 19
Last Quarter
Oct 26
New

Hourly Weather History & Observations

Time (EDT) Temp. Windchill Dew Point Humidity Pressure Visibility Wind Dir Wind Speed Gust Speed Precip Events Conditions
12:15 AM 39.2 °F 33.6 °F 33.8 °F 81% 30.20 in 10.0 mi North 8.1 mph - N/A   Scattered Clouds
12:34 AM 39.2 °F 33.0 °F 33.8 °F 81% 30.21 in 10.0 mi North 9.2 mph - N/A   Scattered Clouds
12:55 AM 39.2 °F 33.0 °F 32.0 °F 75% 30.21 in 10.0 mi North 9.2 mph - N/A   Overcast
1:14 AM 39.2 °F 33.6 °F 33.8 °F 81% 30.21 in 10.0 mi North 8.1 mph - N/A   Overcast
1:34 AM 39.2 °F 34.2 °F 33.8 °F 81% 30.22 in 10.0 mi NNE 6.9 mph - N/A   Overcast
1:55 AM 39.2 °F 33.0 °F 33.8 °F 81% 30.22 in 10.0 mi NNE 9.2 mph - N/A   Overcast
2:14 AM 39.2 °F 32.0 °F 30.2 °F 70% 30.23 in 10.0 mi NNE 11.5 mph 17.3 mph N/A   Overcast
2:35 AM 39.2 °F 33.0 °F 30.2 °F 70% 30.24 in 10.0 mi NNE 9.2 mph 17.3 mph N/A   Mostly Cloudy
2:55 AM 37.4 °F 31.4 °F 30.2 °F 75% 30.24 in 10.0 mi NNE 8.1 mph - N/A   Clear
3:14 AM 37.4 °F 32.1 °F 30.2 °F 75% 30.25 in 10.0 mi North 6.9 mph - N/A   Clear
3:35 AM 35.6 °F 31.7 °F 30.2 °F 81% 30.25 in 10.0 mi North 4.6 mph - N/A   Clear
4:14 AM 35.6 °F 31.7 °F 30.2 °F 81% 30.25 in 10.0 mi NNE 4.6 mph - N/A   Overcast
4:35 AM 35.6 °F 31.7 °F 30.2 °F 81% 30.25 in 10.0 mi NNE 4.6 mph - N/A   Overcast
4:54 AM 35.6 °F 32.8 °F 30.2 °F 81% 30.25 in 10.0 mi NNE 3.5 mph - N/A   Overcast
5:15 AM 35.6 °F - 30.2 °F 81% 30.25 in 10.0 mi Calm Calm - N/A   Mostly Cloudy
5:35 AM 33.8 °F - 30.2 °F 87% 30.26 in 10.0 mi Calm Calm - N/A   Scattered Clouds
6:15 AM 33.8 °F - 30.2 °F 87% 30.27 in 10.0 mi Calm Calm - N/A   Clear
6:35 AM 32.0 °F - 30.2 °F 93% 30.28 in 10.0 mi Calm Calm - N/A   Clear
6:54 AM 30.2 °F - 28.4 °F 93% 30.28 in 10.0 mi Calm Calm - N/A   Clear
7:15 AM 30.2 °F - 28.4 °F 93% 30.29 in 10.0 mi Calm Calm - N/A   Clear
7:34 AM 32.0 °F 28.7 °F 28.4 °F 87% 30.30 in 10.0 mi NNW 3.5 mph - N/A   Clear
7:54 AM 33.8 °F - 30.2 °F 87% 30.31 in 10.0 mi Calm Calm - N/A   Scattered Clouds
8:15 AM 33.8 °F - 30.2 °F 87% 30.31 in 10.0 mi Calm Calm - N/A   Clear
8:34 AM 33.8 °F 28.6 °F 30.2 °F 87% 30.32 in 10.0 mi NNE 5.8 mph - N/A   Clear
8:55 AM 35.6 °F 29.9 °F 30.2 °F 81% 30.32 in 10.0 mi NNE 6.9 mph - N/A   Clear
9:14 AM 35.6 °F 30.7 °F 32.0 °F 87% 30.32 in 10.0 mi NNE 5.8 mph - N/A   Clear
9:34 AM 37.4 °F 31.4 °F 32.0 °F 81% 30.33 in 10.0 mi NNE 8.1 mph - N/A   Clear
10:14 AM 41.0 °F 37.1 °F 32.0 °F 70% 30.34 in 10.0 mi North 5.8 mph - N/A   Clear
10:34 AM 42.8 °F 36.6 °F 33.8 °F 70% 30.33 in 10.0 mi NNE 11.5 mph - N/A   Clear
10:55 AM 42.8 °F 39.3 °F 33.8 °F 70% 30.34 in 10.0 mi North 5.8 mph - N/A   Clear
11:14 AM 44.6 °F 39.7 °F 33.8 °F 66% 30.35 in 10.0 mi North 9.2 mph - N/A   Clear
11:34 AM 44.6 °F 42.2 °F 33.8 °F 66% 30.34 in 10.0 mi NNE 4.6 mph - N/A   Clear
11:55 AM 44.6 °F 43.1 °F 33.8 °F 66% 30.34 in 10.0 mi East 3.5 mph - N/A   Clear
12:14 PM 46.4 °F 42.4 °F 33.8 °F 62% 30.34 in 10.0 mi North 8.1 mph - N/A   Clear
12:35 PM 46.4 °F 44.3 °F 32.0 °F 57% 30.34 in 10.0 mi NNW 4.6 mph - N/A   Clear
12:55 PM 48.2 °F - 32.0 °F 54% 30.34 in 10.0 mi NNE 6.9 mph - N/A   Clear
1:14 PM 48.2 °F - 32.0 °F 54% 30.33 in 10.0 mi Calm Calm - N/A   Clear
1:35 PM 48.2 °F - 30.2 °F 50% 30.32 in 10.0 mi Calm Calm - N/A   Clear
2:14 PM 51.8 °F - 30.2 °F 44% 30.32 in 10.0 mi NNW 6.9 mph - N/A   Clear
2:35 PM 53.6 °F - 32.0 °F 44% 30.31 in 10.0 mi North 4.6 mph - N/A   Clear
2:54 PM 51.8 °F - 30.2 °F 44% 30.31 in 10.0 mi NE 5.8 mph - N/A   Clear
3:15 PM 53.6 °F - 30.2 °F 41% 30.31 in 10.0 mi North 8.1 mph - N/A   Clear
3:35 PM 53.6 °F - 28.4 °F 38% 30.30 in 10.0 mi Calm Calm - N/A   Clear
3:54 PM 53.6 °F - 30.2 °F 41% 30.30 in 10.0 mi Calm Calm - N/A   Clear
4:15 PM 53.6 °F - 32.0 °F 44% 30.31 in 10.0 mi NNW 5.8 mph - N/A   Clear
4:34 PM 53.6 °F - 32.0 °F 44% 30.31 in 10.0 mi NW 8.1 mph - N/A   Clear
4:55 PM 53.6 °F - 33.8 °F 47% 30.30 in 10.0 mi NNW 5.8 mph - N/A   Clear
5:14 PM 51.8 °F - 33.8 °F 50% 30.31 in 10.0 mi NW 8.1 mph - N/A   Clear
5:35 PM 50.0 °F - 33.8 °F 54% 30.30 in 10.0 mi NNW 5.8 mph - N/A   Clear
5:54 PM 48.2 °F - 33.8 °F 58% 30.30 in 10.0 mi NNW 4.6 mph - N/A   Clear
6:14 PM 48.2 °F - 33.8 °F 58% 30.30 in 10.0 mi NNW 5.8 mph - N/A   Clear
6:35 PM 48.2 °F - 33.8 °F 58% 30.30 in 10.0 mi North 5.8 mph - N/A   Clear
6:54 PM 46.4 °F 45.2 °F 35.6 °F 66% 30.29 in 10.0 mi NNW 3.5 mph - N/A   Clear
7:14 PM 44.6 °F - 35.6 °F 71% 30.29 in 10.0 mi Calm Calm - N/A   Clear
7:35 PM 42.8 °F - 35.6 °F 76% 30.29 in 10.0 mi Calm Calm - N/A   Clear
8:15 PM 41.0 °F 38.0 °F 35.6 °F 81% 30.28 in 10.0 mi North 4.6 mph - N/A   Clear
8:34 PM 39.2 °F 37.0 °F 35.6 °F 87% 30.28 in 10.0 mi NNW 3.5 mph - N/A   Clear
8:55 PM 39.2 °F 37.0 °F 35.6 °F 87% 30.28 in 10.0 mi North 3.5 mph - N/A   Clear
9:14 PM 39.2 °F 37.0 °F 35.6 °F 87% 30.28 in 10.0 mi North 3.5 mph - N/A   Clear
9:35 PM 39.2 °F 37.0 °F 35.6 °F 87% 30.28 in 10.0 mi NNE 3.5 mph - N/A   Clear
9:54 PM 37.4 °F 34.9 °F 35.6 °F 93% 30.28 in 10.0 mi NNW 3.5 mph - N/A   Clear
10:15 PM 37.4 °F 34.9 °F 35.6 °F 93% 30.28 in 10.0 mi NNW 3.5 mph - N/A   Clear
10:35 PM 37.4 °F - 35.6 °F 93% 30.28 in 10.0 mi Calm Calm - N/A   Clear
10:55 PM 37.4 °F - 35.6 °F 93% 30.28 in 10.0 mi Calm Calm - N/A   Clear
11:14 PM 35.6 °F - 32.0 °F 87% 30.27 in 10.0 mi Calm Calm - N/A   Clear
11:35 PM 32.0 °F - 30.2 °F 93% 30.27 in 10.0 mi Calm Calm - N/A   Clear
11:54 PM 32.0 °F - 30.2 °F 93% 30.27 in 10.0 mi Calm Calm - N/A   Clear